Pompano Beach, FL

10:50 PM EDT on June 24, 2017 (GMT -0400)
Pompano Beach

Weather History for KPMP - October, 2014

Change the Weather History Date:

Thursday, October 23, 2014

  Actual Average Record
Temperature  
Mean Temperature 76 °F -  
Max Temperature 80 °F 85 °F 93 °F (1950)
Min Temperature 73 °F 70 °F 48 °F (1989)
Cooling Degree Days 11    
Growing Degree Days 26 (Base 50)    
Moisture  
Dew Point 72 °F    
Average Humidity 88    
Maximum Humidity 97    
Minimum Humidity 66    
Precipitation  
Precipitation 0.72 in - - ()
Sea Level Pressure  
Sea Level Pressure 29.91 in    
Wind  
Wind Speed 8 mph (NE)    
Max Wind Speed 20 mph    
Max Gust Speed 28 mph    
Visibility 6 miles    
Events Rain    
Averages and records for this station are not official NWS values.
T = Trace of Precipitation, MM = Missing Value Source: NWS Daily Summary

Daily Weather History Graph

Daily Weather History Graph

Search for Another Location

Airport or City:

Trip Planner

Search our weather history database for the weather conditions in past years. The results will help you decide how hot, cold, wet, or windy it might be!

Date:

Astronomy

Oct. 23, 2014 Rise Set
Actual Time 7:23 AM EDT 6:45 PM EDT
Civil Twilight 7:00 AM EDT 7:08 PM EDT
Nautical Twilight 6:33 AM EDT 7:35 PM EDT
Astronomical Twilight 6:06 AM EDT 8:02 PM EDT
Moon 7:04 AM EDT (10/23) 6:45 PM EDT (10/23)
Length of Visible Light 12h 08m
Length of Day
11h 21m
Waning Crescent, 0% of the Moon is Illuminated
Oct 23
Waning Crescent
Oct 23
New
Oct 30
First Quarter
Nov 6
Full
Nov 14
Last Quarter

Hourly Weather History & Observations

Time (EDT) Temp. Dew Point Humidity Pressure Visibility Wind Dir Wind Speed Gust Speed Precip Events Conditions
12:19 AM 75.9 °F 73.9 °F 94% 29.93 in 9.0 mi South 3.5 mph - 0.02 in Rain Light Rain
12:53 AM 75.9 °F 73.9 °F 94% 29.93 in 8.0 mi WSW 4.6 mph - 0.02 in Rain Light Rain
1:53 AM 75.9 °F 73.9 °F 94% 29.91 in 8.0 mi West 4.6 mph - 0.00 in   Overcast
2:53 AM 75.9 °F 73.0 °F 91% 29.91 in 8.0 mi Calm Calm - N/A   Mostly Cloudy
3:53 AM 75.9 °F 73.9 °F 94% 29.90 in 8.0 mi NNE 6.9 mph - N/A   Mostly Cloudy
4:03 AM 75.9 °F 73.0 °F 91% 29.89 in 8.0 mi NNE 8.1 mph - N/A   Mostly Cloudy
4:11 AM 75.9 °F 73.0 °F 91% 29.89 in 8.0 mi NNE 6.9 mph - N/A   Mostly Cloudy
4:30 AM 75.9 °F 73.0 °F 91% 29.89 in 8.0 mi NE 10.4 mph - 0.00 in Rain Light Rain
4:41 AM 75.0 °F 73.0 °F 94% 29.89 in 1.8 mi NNE 11.5 mph - 0.09 in Rain Heavy Rain
4:51 AM 75.2 °F 73.4 °F 94% 29.89 in 2.0 mi ENE 6.9 mph - 0.16 in Rain Rain
4:53 AM 75.0 °F 73.0 °F 94% 29.90 in 2.5 mi ENE 6.9 mph - 0.17 in Rain Rain
5:01 AM 75.0 °F 73.0 °F 94% 29.89 in 5.0 mi ENE 5.8 mph - 0.00 in Rain Light Rain
5:46 AM 75.0 °F 73.0 °F 94% 29.90 in 4.0 mi NE 5.8 mph - 0.03 in Rain Light Rain
5:53 AM 75.0 °F 73.0 °F 94% 29.90 in 5.0 mi NE 3.5 mph - 0.03 in Rain Light Rain
6:09 AM 75.0 °F 73.0 °F 94% 29.90 in 7.0 mi NE 4.6 mph - 0.01 in Rain Light Rain
6:13 AM 75.0 °F 73.0 °F 94% 29.90 in 8.0 mi East 3.5 mph - 0.01 in Rain Light Rain
6:38 AM 75.0 °F 73.0 °F 94% 29.90 in 8.0 mi NNE 3.5 mph - 0.01 in Rain Light Rain
6:53 AM 75.0 °F 73.0 °F 94% 29.91 in 3.0 mi North 4.6 mph - 0.04 in Rain Rain
7:03 AM 75.0 °F 73.9 °F 96% 29.90 in 3.0 mi ENE 6.9 mph - 0.02 in Rain Light Rain
7:53 AM 73.9 °F 73.0 °F 97% 29.92 in 2.0 mi ENE 6.9 mph - 0.09 in Rain Rain
8:06 AM 75.0 °F 73.0 °F 94% 29.92 in 3.0 mi ENE 8.1 mph - 0.02 in Rain Light Rain
8:36 AM 75.0 °F 73.0 °F 94% 29.93 in 4.0 mi ENE 9.2 mph - 0.04 in Rain Light Rain
8:53 AM 75.0 °F 72.0 °F 90% 29.94 in 2.0 mi NE 5.8 mph - 0.08 in Rain Rain
8:56 AM 75.0 °F 72.0 °F 90% 29.93 in 3.0 mi NE 9.2 mph - 0.00 in Rain Light Rain
9:51 AM 77.0 °F 73.4 °F 89% 29.95 in 5.0 mi ENE 10.4 mph - 0.01 in Rain Light Rain
9:53 AM 77.0 °F 73.0 °F 88% 29.95 in 5.0 mi ENE 11.5 mph - 0.01 in Rain Light Rain
10:53 AM 77.0 °F 73.0 °F 88% 29.96 in 10.0 mi NE 13.8 mph - 0.00 in Rain Light Rain
11:53 AM 79.0 °F 73.0 °F 82% 29.95 in 10.0 mi NE 16.1 mph - 0.01 in   Mostly Cloudy
12:53 PM 75.9 °F 73.0 °F 91% 29.94 in 2.0 mi NE 12.7 mph - 0.01 in Rain Light Rain
12:55 PM 75.9 °F 73.0 °F 91% 29.94 in 1.8 mi NE 11.5 mph - 0.00 in Rain Light Rain
1:24 PM 75.0 °F 73.0 °F 94% 29.93 in 1.0 mi NE 12.7 mph - 0.12 in Rain Rain
1:36 PM 73.9 °F 73.0 °F 97% 29.93 in 1.2 mi NE 12.7 mph - 0.17 in Rain Rain
1:53 PM 73.9 °F 72.0 °F 93% 29.92 in 2.0 mi NNE 10.4 mph - 0.20 in Rain Light Rain
2:33 PM 73.9 °F 72.0 °F 93% 29.90 in 7.0 mi North 8.1 mph - 0.05 in   Overcast
2:53 PM 75.0 °F 72.0 °F 90% 29.90 in 4.0 mi NE 13.8 mph - 0.05 in Rain Light Rain
3:26 PM 75.9 °F 73.9 °F 94% 29.89 in 7.0 mi NE 17.3 mph - 0.01 in Rain Light Rain
3:42 PM 77.0 °F - N/A% 29.88 in 7.0 mi NE 10.4 mph 19.6 mph 0.01 in   Overcast
3:53 PM 77.0 °F - N/A% 29.89 in 10.0 mi NE 10.4 mph - 0.01 in   Overcast
4:53 PM 77.0 °F - N/A% 29.89 in 10.0 mi NE 16.1 mph 25.3 mph 0.00 in   Overcast
5:06 PM 77.0 °F 73.0 °F 88% 29.89 in 7.0 mi NE 19.6 mph 26.5 mph 0.00 in Rain Light Rain
5:53 PM 78.1 °F 68.0 °F 71% 29.89 in 10.0 mi NE 16.1 mph 21.9 mph 0.00 in   Overcast
6:53 PM 78.1 °F 66.9 °F 68% 29.90 in 10.0 mi NE 15.0 mph 27.6 mph N/A   Overcast
7:53 PM 78.1 °F 66.9 °F 68% 29.90 in 10.0 mi ENE 15.0 mph 24.2 mph N/A   Overcast
8:42 PM 78.1 °F 66.9 °F 68% 29.90 in 10.0 mi ENE 16.1 mph - N/A   Overcast
8:53 PM 78.1 °F 66.9 °F 68% 29.91 in 10.0 mi ENE 13.8 mph 25.3 mph N/A   Overcast
9:53 PM 79.0 °F 66.9 °F 66% 29.92 in 10.0 mi NE 15.0 mph 23.0 mph N/A   Mostly Cloudy
10:53 PM 79.0 °F 68.0 °F 69% 29.94 in 10.0 mi ENE 15.0 mph - N/A   Overcast
11:53 PM 79.0 °F 66.9 °F 66% 29.92 in 10.0 mi ENE 13.8 mph - N/A   Overcast